Regional Weather Roundup
Issued by NWS Northern Indiana

Home | Current Version | Previous Version | Graphics & Text | Print | Product List | Glossary On
Versions: 1 2 3 4 5 6 7 8 9 10 11 12 13 14 15 16 17 18 19 20 21 22 23 24 25 26 27 28 29 30 31 32 33 34 35 36 37 38 39 40 41 42 43 44 45 46 47 48 49 50
000
ASUS43 KIWX 250600
RWRIWX

KIWX WEATHER ROUNDUP
NATIONAL WEATHER SERVICE NORTHERN INDIANA
200 AM EDT SUN SEP 25 2016

NOTE: "FAIR" INDICATES FEW OR NO CLOUDS BELOW 12,000 FEET WITH NO
SIGNIFICANT WEATHER AND/OR OBSTRUCTIONS TO VISIBILITY.

* THESE STATIONS ARE NOT UNDER NWS QUALITY CONTROL. THEY ALSO MAY NOT
  REPORT WEATHER SUCH AS PRECIPITATION OR FOG.

INZ001>027-250700-
NORTHERN INDIANA

CITY           SKY/WX    TMP DP  RH WIND       PRES   REMARKS
SOUTH BEND     CLEAR     63  57  81 E12       30.18R
6HR MIN TEMP:  63; 6HR MAX TEMP:  70;

GOSHEN         CLEAR     61  54  77 SE7       30.18S
6HR MIN TEMP:  61; 6HR MAX TEMP:  68;

ANGOLA*          N/A     57  46  67 SE6       30.20S
FORT WAYNE     CLEAR     60  53  77 E6        30.19R
6HR MIN TEMP:  60; 6HR MAX TEMP:  70;

PERU/GRISSOM   CLEAR     64  58  83 E8        30.15S
6HR MIN TEMP:  64; 6HR MAX TEMP:  72;


$$
INZ028>050-250700-
CENTRAL INDIANA

CITY           SKY/WX    TMP DP  RH WIND       PRES   REMARKS
LAFAYETTE      CLEAR     66  64  93 E8        30.13S
6HR MIN TEMP:  66; 6HR MAX TEMP:  74;

MUNCIE*        CLEAR     63  58  83 E7        30.17R
6HR MIN TEMP:  63; 6HR MAX TEMP:  72;

INDIANAPOLIS   CLEAR     70  63  78 E8        30.13R
6HR MIN TEMP:  70; 6HR MAX TEMP:  76;


$$
MIZ043>046-050>051-056>058-064>065-071>073-077>080-250700-
SOUTHWEST LOWER MICHIGAN

CITY           SKY/WX    TMP DP  RH WIND       PRES   REMARKS
BATTLE CREEK   CLEAR     58  53  84 E5        30.20F
6HR MIN TEMP:  58; 6HR MAX TEMP:  67;

BENTON HARBOR  CLEAR     60  56  86 E6        30.16S
6HR MIN TEMP:  60; 6HR MAX TEMP:  68;

COLDWATER*     CLEAR     57  53  86 SE3       30.20S
6HR MIN TEMP:  57; 6HR MAX TEMP:  66;

HILLSDALE*     CLEAR     54  50  87 E6        30.21S FOG
HOLLAND        CLEAR     57  52  83 E8        30.18F
6HR MIN TEMP:  57; 6HR MAX TEMP:  65;

GRAND RAPIDS   CLEAR     54  49  83 E8        30.21S
6HR MIN TEMP:  54; 6HR MAX TEMP:  62;

KALAMAZOO      CLEAR     57  52  83 CALM      30.19F
6HR MIN TEMP:  57; 6HR MAX TEMP:  67;

STURGIS*       CLEAR     59  53  81 E5        30.19S
6HR MIN TEMP:  59; 6HR MAX TEMP:  66;

THREE RIVERS*  FAIR      59  56  88 E5        30.19F
6HR MIN TEMP:  59; 6HR MAX TEMP:  66;


$$
OHZ001>008-015>018-024>025-250700-
NORTHWEST OHIO

CITY           SKY/WX    TMP DP  RH WIND       PRES   REMARKS
DEFIANCE       CLEAR     57  52  83 CALM      30.21R
6HR MIN TEMP:  57; 6HR MAX TEMP:  67;

FINDLAY        CLEAR     58  49  72 E7        30.20R
6HR MIN TEMP:  58; 6HR MAX TEMP:  68;

TOLEDO EXPRESS CLEAR     54  54 100 CALM      30.21S
6HR MIN TEMP:  53; 6HR MAX TEMP:  60;

TOLEDO METCALF CLEAR     54  52  93 SE8       30.22R
6HR MIN TEMP:  54; 6HR MAX TEMP:  64;

LIMA           CLEAR     56  52  86 E7        30.19R
6HR MIN TEMP:  56; 6HR MAX TEMP:  66;


$$
AND FOR LAKE MICHIGAN COASTAL AND OPEN LAKE BUOY OBSERVATIONS

STATION/POSITION TEMP    WIND        PRES    VSBY  WAVE
                 AIR SEA DIR/SP/G                  HT/PER
                 (F)     (DEG/KT/KT) (MB)    (MI)  (FT/S)
CALUMET HARBOR    70     110/  8/ 11 1019.6F
MICHIGAN CITY     67     110/  9/ 11   N/A
BURNS HARBOR      69     140/  8/ 14 1020.7F
SAINT JOSEPH      64     340/  2/  6 1021.7
SOUTH LAKE BUOY   69 72  110/ 17/ 19 1020.2          3/ 4
4 MI NW BRIDGMAN  65 67  120/ 12/ 14 1020.8F         1
MICHIGAN CITY     67 69  130/  8/ 10   N/A           1/ 3

$$
&&




USA.gov is the U.S. government's official web portal to all federal, state and local government web resources and services.